TimeMST,TemperatureF,Dew PointF,Humidity,Sea Level PressureIn,VisibilityMPH,Wind Direction,Wind SpeedMPH,Gust SpeedMPH,PrecipitationIn,Events,Conditions,WindDirDegrees,DateUTC
12:15 AM,25.9,12.9,58,29.86,10.0,WSW,6.9,-,N/A,,Clear,250,2012-12-13 07:15:00
12:35 AM,24.6,12.6,60,29.87,10.0,SW,5.8,-,N/A,,Clear,230,2012-12-13 07:35:00
12:55 AM,26.4,12.7,56,29.87,10.0,WSW,3.5,-,N/A,,Clear,250,2012-12-13 07:55:00
1:15 AM,24.3,12.6,61,29.90,10.0,East,8.1,-,N/A,,Clear,100,2012-12-13 08:15:00
1:35 AM,25.3,13.3,60,29.91,10.0,East,4.6,-,N/A,,Clear,80,2012-12-13 08:35:00
1:55 AM,25.5,12.9,59,29.91,10.0,Calm,Calm,-,N/A,,Clear,0,2012-12-13 08:55:00
2:15 AM,26.2,12.6,56,29.91,10.0,Calm,Calm,-,N/A,,Clear,0,2012-12-13 09:15:00
2:35 AM,24.3,12.2,60,29.92,10.0,West,3.5,-,N/A,,Clear,280,2012-12-13 09:35:00
2:55 AM,24.3,12.4,61,29.92,10.0,West,8.1,-,N/A,,Clear,260,2012-12-13 09:55:00
3:15 AM,24.1,12.6,62,29.92,10.0,West,6.9,-,N/A,,Clear,260,2012-12-13 10:15:00
3:35 AM,23.0,12.4,64,29.93,10.0,WSW,5.8,-,N/A,,Clear,240,2012-12-13 10:35:00
3:55 AM,21.9,12.0,66,29.93,10.0,Calm,Calm,-,N/A,,Clear,0,2012-12-13 10:55:00
4:15 AM,21.6,11.7,66,29.94,10.0,Calm,Calm,-,N/A,,Clear,0,2012-12-13 11:15:00
4:35 AM,19.9,11.1,69,29.95,10.0,West,4.6,-,N/A,,Clear,270,2012-12-13 11:35:00
4:55 AM,21.6,12.2,67,29.95,10.0,West,4.6,-,N/A,,Clear,280,2012-12-13 11:55:00
5:15 AM,23.0,13.1,66,29.95,10.0,West,4.6,-,N/A,,Clear,270,2012-12-13 12:15:00
5:35 AM,23.0,13.8,68,29.95,10.0,West,4.6,-,N/A,,Clear,260,2012-12-13 12:35:00
5:55 AM,22.1,14.0,71,29.95,10.0,West,5.8,-,N/A,,Clear,260,2012-12-13 12:55:00
6:15 AM,24.1,14.7,68,29.96,10.0,WSW,4.6,-,N/A,,Clear,250,2012-12-13 13:15:00
6:35 AM,23.5,14.4,68,29.97,10.0,WSW,3.5,-,N/A,,Clear,240,2012-12-13 13:35:00
6:55 AM,23.5,14.9,70,29.98,10.0,WSW,4.6,-,N/A,,Clear,250,2012-12-13 13:55:00
7:15 AM,23.2,14.5,70,30.00,10.0,West,5.8,-,N/A,,Clear,270,2012-12-13 14:15:00
7:35 AM,24.8,15.1,67,30.01,10.0,WSW,8.1,-,N/A,,Clear,250,2012-12-13 14:35:00
7:55 AM,26.1,16.2,66,30.01,10.0,WSW,5.8,-,N/A,,Clear,250,2012-12-13 14:55:00
8:15 AM,28.2,16.7,62,30.02,10.0,WSW,6.9,-,N/A,,Clear,240,2012-12-13 15:15:00
8:35 AM,29.3,17.8,62,30.02,10.0,WSW,3.5,-,N/A,,Clear,240,2012-12-13 15:35:00
8:55 AM,31.1,17.8,58,30.04,10.0,WSW,5.8,-,N/A,,Clear,240,2012-12-13 15:55:00
9:15 AM,32.4,18.3,56,30.05,10.0,West,5.8,-,N/A,,Clear,260,2012-12-13 16:15:00
9:35 AM,33.6,18.5,54,30.05,10.0,WSW,6.9,-,N/A,,Clear,250,2012-12-13 16:35:00
9:55 AM,35.4,18.3,50,30.05,10.0,WSW,8.1,-,N/A,,Clear,240,2012-12-13 16:55:00
10:15 AM,37.0,18.9,48,30.05,10.0,WSW,6.9,-,N/A,,Clear,250,2012-12-13 17:15:00
10:35 AM,38.3,18.5,45,30.05,10.0,West,5.8,-,N/A,,Clear,260,2012-12-13 17:35:00
10:55 AM,39.6,18.3,42,30.04,10.0,WSW,6.9,-,N/A,,Clear,250,2012-12-13 17:55:00
11:15 AM,41.0,18.5,40,30.03,10.0,WSW,5.8,-,N/A,,Clear,240,2012-12-13 18:15:00
11:35 AM,42.6,18.3,38,30.02,10.0,WSW,5.8,-,N/A,,Clear,250,2012-12-13 18:35:00
11:55 AM,43.9,18.5,36,30.01,10.0,West,4.6,-,N/A,,Clear,270,2012-12-13 18:55:00
12:15 PM,45.5,18.9,35,30.00,10.0,Calm,Calm,-,N/A,,Clear,0,2012-12-13 19:15:00
12:35 PM,46.4,19.0,34,30.00,10.0,Calm,Calm,-,N/A,,Clear,0,2012-12-13 19:35:00
12:55 PM,47.8,19.4,32,29.99,10.0,Calm,Calm,-,N/A,,Clear,0,2012-12-13 19:55:00
1:15 PM,48.9,19.4,31,29.98,10.0,Calm,Calm,-,N/A,,Clear,0,2012-12-13 20:15:00
1:35 PM,50.9,19.4,29,29.97,10.0,Calm,Calm,-,N/A,,Clear,0,2012-12-13 20:35:00
1:55 PM,52.3,19.4,27,29.96,10.0,ESE,3.5,-,N/A,,Clear,110,2012-12-13 20:55:00
2:15 PM,54.9,18.5,24,29.96,10.0,South,9.2,-,N/A,,Clear,170,2012-12-13 21:15:00
2:35 PM,54.5,18.9,25,29.96,10.0,SSE,5.8,-,N/A,,Clear,160,2012-12-13 21:35:00
2:55 PM,53.6,18.5,25,29.96,10.0,SSE,6.9,-,N/A,,Clear,150,2012-12-13 21:55:00
3:15 PM,52.2,18.7,27,29.96,10.0,SSE,5.8,-,N/A,,Clear,150,2012-12-13 22:15:00
3:35 PM,50.2,18.5,29,29.96,10.0,SSE,4.6,-,N/A,,Clear,150,2012-12-13 22:35:00
5:15 PM,38.1,16.2,41,29.96,10.0,Calm,Calm,-,N/A,,Clear,0,2012-12-14 00:15:00
6:15 PM,39.2,16.5,40,29.97,10.0,Calm,Calm,-,N/A,,Clear,0,2012-12-14 01:15:00
6:35 PM,36.3,16.3,44,29.97,10.0,ENE,3.5,-,N/A,,Clear,60,2012-12-14 01:35:00
6:55 PM,34.5,15.3,45,29.97,10.0,ENE,3.5,-,N/A,,Clear,70,2012-12-14 01:55:00
7:15 PM,37.2,16.3,43,29.97,10.0,SE,4.6,-,N/A,,Clear,130,2012-12-14 02:15:00
7:35 PM,36.1,16.2,44,29.97,10.0,ESE,3.5,-,N/A,,Clear,120,2012-12-14 02:35:00
7:55 PM,35.8,16.2,45,29.96,10.0,East,4.6,-,N/A,,Clear,100,2012-12-14 02:55:00
8:15 PM,38.1,16.7,42,29.96,10.0,ENE,3.5,-,N/A,,Clear,70,2012-12-14 03:15:00
8:35 PM,38.8,16.9,41,29.95,10.0,East,4.6,-,N/A,,Clear,80,2012-12-14 03:35:00
8:55 PM,37.6,17.1,43,29.95,10.0,Calm,Calm,-,N/A,,Clear,0,2012-12-14 03:55:00
9:15 PM,37.4,16.7,43,29.94,10.0,SSE,8.1,-,N/A,,Clear,150,2012-12-14 04:15:00
9:35 PM,36.9,17.1,45,29.94,10.0,SSE,6.9,-,N/A,,Clear,150,2012-12-14 04:35:00
9:55 PM,36.5,16.9,45,29.94,10.0,SE,8.1,-,N/A,,Clear,140,2012-12-14 04:55:00
10:15 PM,35.8,16.9,46,29.93,10.0,SE,8.1,-,N/A,,Clear,130,2012-12-14 05:15:00
10:35 PM,35.4,17.2,48,29.94,10.0,Calm,Calm,-,N/A,,Clear,0,2012-12-14 05:35:00
10:55 PM,35.6,17.2,47,29.94,10.0,Calm,Calm,-,N/A,,Clear,0,2012-12-14 05:55:00
11:15 PM,34.3,17.2,50,29.93,10.0,Calm,Calm,-,N/A,,Clear,0,2012-12-14 06:15:00
11:35 PM,34.3,17.1,49,29.92,10.0,SSW,6.9,-,N/A,,Clear,210,2012-12-14 06:35:00
11:55 PM,32.9,16.7,51,29.92,10.0,Calm,Calm,-,N/A,,Clear,0,2012-12-14 06:55:00